Regional Weather Roundup
Issued by NWS Little Rock, AR

Home | Current Version | Previous Version | Graphics & Text | Print | Product List | Glossary On
Versions: 1 2 3 4 5 6 7 8 9 10 11 12 13 14 15 16 17 18 19 20 21 22 23 24 25 26 27 28 29 30 31 32 33 34 35 36 37 38 39 40 41 42 43 44 45 46 47 48 49 50
000
ASUS44 KLZK 050605
RWRLZK

WEATHER ROUNDUP FOR ARKANSAS
NATIONAL WEATHER SERVICE LITTLE ROCK AR
100 AM CDT WED AUG 05 2015

NOTE: "FAIR" INDICATES FEW OR NO CLOUDS BELOW 12,000 FEET WITH NO
SIGNIFICANT WEATHER AND/OR OBSTRUCTIONS TO VISIBILITY.

ARZ001-003-010-029-050700-
NORTHWEST ARKANSAS

CITY           SKY/WX    TMP DP  RH WIND       PRES   REMARKS
FAYETTEVILLE   LGT RAIN  75  72  90 E6        29.99F
6HR MIN TEMP:  75; 6HR MAX TEMP:  82; 6HR PCP: TRACE;

FORT SMITH     PTCLDY    79  70  74 E8        29.95F
6HR MIN TEMP:  79; 6HR MAX TEMP:  88;

HARRISON       CLOUDY    72  68  87 VRB3      30.05S
6HR MIN TEMP:  72; 6HR MAX TEMP:  79; 6HR PCP: TRACE;

BENTONVILLE    MOCLDY    73  68  83 SE9       29.99F
6HR MIN TEMP:  73; 6HR MAX TEMP:  81; 6HR PCP:  0.03;

ROGERS         CLOUDY    73  70  90 E10       29.99F
6HR MIN TEMP:  73; 6HR MAX TEMP:  80; 6HR PCP:  0.05;

SILOAM SPGS    MOCLDY    75  64  69 E8        29.97F
6HR MIN TEMP:  75; 6HR MAX TEMP:  81;

HIGHFILL       CLOUDY    75  71  87 E6        29.98F
6HR MIN TEMP:  74; 6HR MAX TEMP:  81; 6HR PCP:  0.02;

$$

ARZ004-005-016-050700-
NORTH CENTRAL ARKANSAS

CITY           SKY/WX    TMP DP  RH WIND       PRES   REMARKS
BATESVILLE     CLOUDY    77  73  88 NE3       29.99F
6HR MIN TEMP:  77; 6HR MAX TEMP:  90;

FLIPPIN        CLOUDY    72  66  83 CALM      30.00S
6HR MIN TEMP:  72; 6HR MAX TEMP:  84; 6HR PCP:  0.35;

MTN HOME       CLOUDY    71  67  87 E6        30.01S
6HR MIN TEMP:  69; 6HR MAX TEMP:  84;

$$

ARZ040-041-050700-
WEST CENTRAL ARKANSAS

CITY           SKY/WX    TMP DP  RH WIND       PRES   REMARKS
MENA           PTCLDY    75  73  94 CALM      30.00F
MOUNT IDA      MOCLDY    76  73  91 CALM      29.96F
6HR MIN TEMP:  76; 6HR MAX TEMP:  85;

$$

ARZ009-017-025-026-028-050700-
NORTHEAST ARKANSAS

CITY           SKY/WX    TMP DP  RH WIND       PRES   REMARKS
JONESBORO      CLOUDY    79  76  90 CALM      29.98S
6HR MIN TEMP:  77; 6HR MAX TEMP:  88;

NEWPORT        CLOUDY    82  75  79 N5        29.98F HX  88
6HR MIN TEMP:  82; 6HR MAX TEMP:  88;

WALNUT RIDGE   CLOUDY    73  68  83 NW28      29.99F THUNDER
6HR MIN TEMP:  73; 6HR MAX TEMP:  90;

BLYTHEVILLE    CLOUDY    81  77  88 CALM      29.98F HX  88
6HR MIN TEMP:  80; 6HR MAX TEMP:  88;

$$

ARZ022-023-033-042-044-050700-
CENTRAL ARKANSAS

CITY           SKY/WX    TMP DP  RH WIND       PRES   REMARKS
LITTLE ROCK    CLOUDY    82  71  69 CALM      29.96F HX  86
6HR MIN TEMP:  82; 6HR MAX TEMP:  91; 6HR PCP: TRACE;

N LITTLE ROCK    N/A     82  71  70 E2        29.96F HX  86
6HR MIN TEMP:  82; 6HR MAX TEMP:  91;

JACKSONVILLE   CLOUDY    81  71  70 E2        29.96F HX  85
6HR MIN TEMP:  80; 6HR MAX TEMP:  92;

SEARCY         CLOUDY    79  74  84 CALM      29.98F
6HR MIN TEMP:  79; 6HR MAX TEMP:  87;

HOT SPRINGS    CLOUDY    81  69  67 CALM      29.97F
6HR MIN TEMP:  80; 6HR MAX TEMP:  93;

RUSSELLVILLE   CLOUDY    77  74  90 CALM      29.97F
6HR MIN TEMP:  77; 6HR MAX TEMP:  83; 6HR PCP:  0.01;

$$

ARZ036-050700-
EAST ARKANSAS

CITY           SKY/WX    TMP DP  RH WIND       PRES   REMARKS
WEST MEMPHIS   CLOUDY    82  74  76 CALM      29.97S HX  88
6HR MIN TEMP:  80; 6HR MAX TEMP:  89;

$$

ARZ050-053-066-070-073-050700-
SOUTHWEST ARKANSAS

CITY           SKY/WX    TMP DP  RH WIND       PRES   REMARKS
ARKADELPHIA    FAIR      80  77  91 CALM      29.96F HX  85
6HR MIN TEMP:  80; 6HR MAX TEMP:  90;

CAMDEN         CLOUDY    81  72  74 CALM      29.95F
TEXARKANA      MOCLDY    87  68  52 S8        29.95F HX  90
6HR MIN TEMP:  84; 6HR MAX TEMP:  93;

EL DORADO      CLOUDY    80  72  76 CALM      29.97S
6HR MIN TEMP:  80; 6HR MAX TEMP:  95;

DE QUEEN       MOCLDY    79  73  82 CALM      29.93F
6HR MIN TEMP:  79; 6HR MAX TEMP:  90;

$$

ARZ056-057-069-050700-
SOUTHEAST ARKANSAS

CITY           SKY/WX    TMP DP  RH WIND       PRES   REMARKS
PINE BLUFF     CLOUDY    81  75  82 CALM      29.96F HX  87
6HR MIN TEMP:  81; 6HR MAX TEMP:  90;

STUTTGART      CLOUDY    82  72  69 SE5       29.97F HX  87
6HR MIN TEMP:  82; 6HR MAX TEMP:  93;

MONTICELLO     CLOUDY    83  75  77 CALM      29.96F HX  90
6HR MIN TEMP:  82; 6HR MAX TEMP:  92;


$$





USA.gov is the U.S. government's official web portal to all federal, state and local government web resources and services.